QPF
0.00 0.00 0.00 0.00 0.01 0.05 0.00 0.00 0.01 0.00 0.05 0.07 0.03 0.00 0.00 0.00 0.00 0.00 0.00 0.00 0.00 0.00 0.00 0.00 0.00 0.00 0.00 0.00 0.00 0.00 0.00 0.00 0.00 0.00 0.00 0.00 0.00 0.00 0.00 0.00 0.00 0.00 0.00
0.00 0.00 0.00 0.00 0.00 0.08 0.01 0.00 0.01 0.01 0.03 0.03 0.00 0.00 0.00 0.00 0.00 0.00 0.00 0.00 0.00 0.00 0.00 0.00 0.00 0.00 0.01 0.01 0.00 0.00 0.00 0.00 0.00 0.00 0.00 0.00 0.00 0.00 0.01 0.01 0.00 0.00 0.00
0.00 0.00 0.00 0.00 0.00 0.10 0.03 0.00 0.00 0.01 0.02 0.03 0.01 0.01 0.00 0.00 0.00 0.00 0.00 0.00 0.00 0.00 0.00 0.00 0.00 0.00 0.00 0.00 0.00 0.00 0.00 0.00 0.00 0.00 0.00 0.00 0.00 0.00 0.00 0.01 0.01 0.01 0.00
0.00 0.00 0.00 0.00 0.00 0.09 0.05 0.01 0.00 0.00 0.04 0.03 0.04 0.06 0.01 0.00 0.00 0.00 0.00 0.00 0.00 0.01 0.00 0.00 0.00 0.00 0.00 0.00 0.00 0.00 0.00 0.00 0.00 0.00 0.00 0.01 0.01 0.00 0.00 0.00 0.00 0.00 0.00
0.00 0.00 0.00 0.00 0.00 0.08 0.09 0.04 0.01 0.01 0.01 0.05 0.07 0.10 0.04 0.00 0.00 0.00 0.00 0.00 0.00 0.00 0.00 0.00 0.00 0.00 0.00 0.00 0.00 0.00 0.00 0.00 0.00 0.00 0.00 0.02 0.01 0.00 0.00 0.00 0.00 0.01 0.00
0.00 0.00 0.00 0.00 0.02 0.10 0.10 0.06 0.04 0.03 0.02 0.02 0.05 0.09 0.07 0.01 0.00 0.00 0.00 0.00 0.00 0.00 0.00 0.00 0.00 0.00 0.00 0.00 0.00 0.00 0.00 0.00 0.00 0.00 0.00 0.00 0.00 0.00 0.00 0.00 0.00 0.00 0.00
0.00 0.00 0.00 0.01 0.06 0.11 0.14 0.08 0.04 0.05 0.04 0.02 0.01 0.01 0.05 0.03 0.00 0.00 0.00 0.00 0.00 0.00 0.00 0.00 0.00 0.00 0.00 0.00 0.00 0.00 0.00 0.00 0.00 0.00 0.00 0.00 0.00 0.00 0.00 0.00 0.00 0.00 0.00
0.00 0.00 0.00 0.02 0.07 0.06 0.07 0.08 0.07 0.09 0.08 0.07 0.06 0.05 0.06 0.07 0.00 0.00 0.00 0.00 0.00 0.00 0.00 0.00 0.00 0.00 0.00 0.00 0.00 0.00 0.00 0.00 0.00 0.00 0.00 0.00 0.00 0.00 0.00 0.00 0.00 0.00 0.00
0.00 0.00 0.01 0.01 0.06 0.07 0.05 0.02 0.02 0.06 0.08 0.08 0.06 0.04 0.06 0.06 0.02 0.00 0.00 0.00 0.00 0.00 0.00 0.00 0.00 0.00 0.00 0.00 0.00 0.00 0.00 0.00 0.00 0.00 0.00 0.00 0.00 0.00 0.00 0.00 0.00 0.00 0.00
0.00 0.00 0.01 0.00 0.00 0.03 0.03 0.01 0.00 0.00 0.00 0.00 0.00 0.00 0.00 0.00 0.01 0.01 0.00 0.00 0.00 0.00 0.00 0.00 0.00 0.00 0.00 0.00 0.00 0.00 0.00 0.00 0.00 0.00 0.00 0.00 0.00 0.00 0.00 0.00 0.00 0.00 0.00
0.01 0.00 0.00 0.01 0.01 0.00 0.00 0.00 0.01 0.00 0.00 0.00 0.00 0.00 0.00 0.00 0.00 0.00 0.00 0.01 0.01 0.01 0.00 0.00 0.00 0.00 0.00 0.00 0.00 0.00 0.00 0.00 0.00 0.00 0.01 0.01 0.01 0.00 0.00 0.00 0.00 0.00 0.00
0.02 0.01 0.02 0.04 0.05 0.02 0.01 0.01 0.01 0.01 0.00 0.00 0.00 0.00 0.00 0.00 0.00 0.00 0.00 0.00 0.00 0.01 0.00 0.00 0.00 0.00 0.00 0.00 0.00 0.00 0.00 0.00 0.00 0.00 0.00 0.01 0.00 0.00 0.00 0.00 0.00 0.00 0.00
0.01 0.02 0.02 0.03 0.04 0.05 0.03 0.01 0.01 0.02 0.01 0.00 0.00 0.00 0.00 0.00 0.00 0.00 0.00 0.00 0.00 0.00 0.00 0.01 0.01 0.00 0.00 0.00 0.00 0.00 0.00 0.00 0.00 0.00 0.00 0.00 0.00 0.00 0.00 0.00 0.00 0.00 0.00
0.00 0.00 0.01 0.01 0.02 0.03 0.05 0.04 0.01 0.01 0.01 0.00 0.00 0.00 0.00 0.00 0.00 0.00 0.00 0.01 0.00 0.00 0.00 0.00 0.02 0.00 0.00 0.00 0.02 0.00 0.00 0.00 0.00 0.00 0.00 0.00 0.00 0.00 0.00 0.00 0.00 0.00 0.00
0.00 0.01 0.01 0.01 0.01 0.02 0.03 0.03 0.02 0.00 0.00 0.00 0.00 0.00 0.00 0.00 0.00 0.01 0.00 0.00 0.01 0.00 0.00 0.00 0.00 0.00 0.00 0.00 0.01 0.00 0.00 0.00 0.00 0.00 0.00 0.00 0.00 0.00 0.00 0.00 0.00 0.00 0.00
0.00 0.00 0.01 0.01 0.01 0.01 0.01 0.01 0.00 0.00 0.00 0.00 0.00 0.00 0.00 0.00 0.00 0.00 0.01 0.01 0.00 0.00 0.00 0.00 0.00 0.00 0.00 0.00 0.00 0.00 0.00 0.00 0.00 0.00 0.00 0.00 0.00 0.00 0.00 0.02 0.02 0.02 0.02
0.00 0.00 0.00 0.01 0.00 0.01 0.01 0.00 0.00 0.00 0.00 0.00 0.00 0.00 0.00 0.00 0.00 0.00 0.00 0.00 0.00 0.00 0.00 0.00 0.00 0.00 0.00 0.00 0.00 0.00 0.00 0.00 0.00 0.00 0.00 0.00 0.00 0.00 0.00 0.00 0.01 0.00 0.00
0.00 0.00 0.00 0.00 0.00 0.01 0.00 0.00 0.00 0.00 0.00 0.00 0.00 0.00 0.00 0.00 0.00 0.00 0.00 0.00 0.00 0.00 0.00 0.00 0.00 0.00 0.00 0.00 0.00 0.00 0.00 0.00 0.00 0.00 0.00 0.00 0.00 0.00 0.00 0.00 0.00 0.00 0.00
0.00 0.00 0.00 0.00 0.00 0.00 0.00 0.00 0.00 0.00 0.00 0.00 0.00 0.00 0.00 0.00 0.00 0.00 0.00 0.00 0.00 0.00 0.00 0.00 0.00 0.00 0.00 0.00 0.00 0.00 0.00 0.00 0.00 0.00 0.00 0.00 0.00 0.00 0.00 0.00 0.00 0.00 0.00
0.00 0.00 0.00 0.00 0.00 0.00 0.00 0.00 0.00 0.00 0.00 0.00 0.00 0.00 0.00 0.00 0.00 0.00 0.00 0.00 0.00 0.00 0.00 0.00 0.00 0.00 0.00 0.00 0.00 0.00 0.00 0.00 0.00 0.00 0.00 0.00 0.00 0.00 0.00 0.00 0.00 0.00 0.00
0.00 0.00 0.00 0.00 0.00 0.00 0.00 0.00 0.00 0.00 0.00 0.00 0.00 0.00 0.00 0.00 0.00 0.00 0.00 0.00 0.00 0.00 0.00 0.00 0.00 0.00 0.00 0.00 0.00 0.00 0.00 0.00 0.00 0.00 0.00 0.00 0.00 0.00 0.00 0.00 0.00 0.00 0.00
0.00 0.00 0.00 0.00 0.00 0.00 0.00 0.00 0.00 0.00 0.00 0.00 0.00 0.00 0.00 0.00 0.00 0.00 0.00 0.00 0.00 0.00 0.00 0.00 0.00 0.00 0.00 0.00 0.00 0.00 0.00 0.00 0.00 0.00 0.00 0.00 0.00 0.00 0.00 0.00 0.00 0.00 0.00
0.00 0.00 0.00 0.00 0.00 0.00 0.00 0.00 0.00 0.00 0.00 0.00 0.00 0.00 0.00 0.00 0.00 0.00 0.00 0.00 0.00 0.00 0.00 0.00 0.00 0.00 0.00 0.00 0.00 0.00 0.00 0.00 0.00 0.00 0.00 0.00 0.00 0.00 0.00 0.00 0.00 0.00 0.00
0.00 0.00 0.00 0.00 0.00 0.00 0.00 0.00 0.00 0.00 0.00 0.00 0.00 0.00 0.00 0.00 0.00 0.00 0.00 0.00 0.00 0.00 0.00 0.00 0.00 0.00 0.00 0.00 0.00 0.00 0.00 0.00 0.00 0.00 0.00 0.00 0.00 0.00 0.00 0.00 0.00 0.00 0.00
0.00 0.00 0.00 0.00 0.00 0.00 0.00 0.00 0.00 0.00 0.00 0.00 0.00 0.00 0.00 0.00 0.00 0.00 0.00 0.00 0.00 0.00 0.00 0.00 0.00 0.00 0.00 0.00 0.00 0.00 0.00 0.00 0.00 0.00 0.00 0.00 0.00 0.00 0.00 0.00 0.00 0.00 0.00
0.00 0.00 0.00 0.00 0.00 0.00 0.00 0.00 0.00 0.00 0.00 0.00 0.00 0.00 0.00 0.00 0.00 0.00 0.00 0.00 0.00 0.00 0.00 0.00 0.00 0.00 0.00 0.00 0.00 0.00 0.00 0.00 0.00 0.00 0.00 0.00 0.00 0.00 0.00 0.00 0.00 0.00 0.00
MSLP
1012.85 1013.08 1013.83 1013.72 1013.53 1013.43 1013.53 1013.64 1013.66 1013.64 1013.95 1014.16 1014.36 1014.68 1014.95 1015.19 1015.40 1015.57 1015.64 1015.70 1015.71 1015.67 1015.75 1015.80 1015.83 1016.02 1016.07 1016.11 1016.13 1016.13 1016.14 1016.15 1016.16 1016.11 1016.07 1015.98 1015.86 1015.72 1015.61 1015.34 1014.83 1014.69 1014.80
1013.37 1013.28 1013.81 1013.84 1013.70 1013.60 1013.51 1013.74 1013.83 1013.87 1014.07 1014.30 1014.53 1014.82 1014.98 1015.25 1015.53 1015.76 1015.84 1015.85 1015.90 1015.86 1015.99 1016.11 1016.30 1016.30 1016.25 1016.38 1016.51 1016.56 1016.54 1016.57 1016.55 1016.46 1016.26 1016.22 1016.22 1016.09 1015.97 1015.79 1015.49 1015.28 1015.18
1013.56 1013.71 1013.47 1013.88 1013.76 1013.63 1013.65 1013.85 1013.99 1014.03 1014.22 1014.38 1014.61 1014.91 1015.15 1015.25 1015.61 1015.78 1015.95 1016.04 1016.04 1016.15 1016.30 1016.57 1016.63 1016.60 1016.67 1016.71 1016.83 1016.87 1016.93 1016.93 1016.87 1016.58 1016.14 1015.93 1016.29 1016.43 1016.31 1016.17 1015.97 1015.71 1015.51
1013.75 1013.80 1013.56 1013.92 1013.89 1013.87 1013.89 1014.01 1014.15 1014.18 1014.43 1014.59 1014.73 1015.03 1015.29 1015.40 1015.60 1015.91 1016.00 1016.16 1016.23 1016.44 1016.70 1016.88 1016.87 1017.01 1017.13 1017.06 1017.11 1017.18 1017.25 1017.29 1017.06 1016.59 1016.08 1016.34 1016.49 1016.83 1016.63 1016.45 1016.33 1016.08 1015.93
1014.16 1014.06 1013.80 1013.95 1013.98 1013.91 1014.07 1014.22 1014.16 1014.33 1014.48 1014.82 1014.98 1015.29 1015.46 1015.73 1015.87 1016.04 1016.24 1016.33 1016.45 1016.70 1017.05 1017.17 1017.23 1017.36 1017.50 1017.53 1017.51 1017.55 1017.57 1017.57 1017.23 1016.52 1016.75 1016.96 1017.00 1017.24 1017.16 1016.95 1016.72 1016.55 1016.41
1014.49 1014.20 1014.05 1013.93 1014.03 1013.99 1014.14 1014.49 1014.46 1014.52 1014.77 1014.87 1015.24 1015.42 1015.69 1015.94 1016.26 1016.50 1016.61 1016.73 1016.84 1017.02 1017.24 1017.39 1017.53 1017.61 1017.70 1017.84 1017.90 1017.94 1017.94 1017.76 1017.30 1016.93 1016.85 1017.24 1017.41 1017.60 1017.59 1017.57 1017.33 1017.12 1016.87
1015.06 1014.79 1014.35 1013.86 1014.04 1014.11 1014.30 1014.62 1014.79 1014.86 1015.08 1015.04 1015.48 1015.57 1015.90 1016.11 1016.43 1016.77 1017.12 1017.26 1017.33 1017.44 1017.48 1017.57 1017.76 1017.89 1017.97 1018.02 1018.16 1018.28 1018.28 1017.95 1017.11 1017.18 1017.28 1017.36 1017.79 1017.93 1017.93 1017.98 1017.86 1017.75 1017.45
1015.87 1015.39 1015.40 1014.55 1014.35 1014.49 1014.62 1014.85 1015.00 1015.20 1015.35 1015.39 1015.65 1015.75 1016.09 1016.40 1016.75 1017.09 1017.32 1017.62 1017.71 1017.81 1017.82 1017.85 1017.98 1018.11 1018.27 1018.34 1018.42 1018.52 1018.52 1018.19 1017.58 1017.56 1017.57 1017.89 1018.43 1018.34 1018.31 1018.30 1018.26 1018.17 1018.06
1016.37 1016.13 1016.10 1015.69 1015.61 1015.51 1015.57 1015.65 1015.49 1015.76 1015.81 1015.84 1016.36 1016.29 1016.43 1016.78 1017.02 1017.42 1017.69 1017.82 1018.01 1018.05 1018.13 1018.22 1018.29 1018.39 1018.50 1018.64 1018.74 1018.87 1018.85 1018.53 1017.85 1017.87 1017.76 1018.28 1018.69 1018.67 1018.72 1018.67 1018.55 1018.45 1018.44
1017.25 1016.65 1016.66 1016.83 1016.07 1016.89 1016.53 1016.63 1016.68 1016.80 1016.83 1016.98 1017.12 1017.18 1017.13 1017.38 1017.63 1017.64 1017.98 1018.10 1018.31 1018.41 1018.46 1018.52 1018.56 1018.67 1018.80 1018.93 1019.06 1019.10 1019.08 1018.80 1018.17 1018.21 1018.11 1018.72 1018.91 1018.93 1019.01 1019.02 1018.96 1018.89 1018.84
1017.81 1017.54 1017.47 1017.49 1017.06 1017.56 1017.25 1017.49 1017.05 1017.59 1017.61 1017.64 1017.59 1017.76 1017.57 1018.08 1018.30 1018.44 1018.77 1018.69 1018.54 1018.76 1018.87 1018.85 1018.91 1018.95 1019.05 1019.21 1019.35 1019.41 1019.17 1018.35 1018.30 1018.34 1018.36 1019.24 1019.21 1019.25 1019.30 1019.28 1019.27 1019.25 1019.21
1018.62 1018.41 1018.29 1018.22 1017.80 1018.33 1018.11 1018.16 1017.64 1018.00 1018.34 1018.25 1018.25 1018.31 1018.43 1018.86 1019.07 1019.28 1019.41 1019.32 1019.26 1019.14 1019.13 1019.27 1019.22 1019.24 1019.13 1018.53 1019.05 1019.48 1018.57 1018.48 1018.45 1018.54 1018.88 1019.45 1019.49 1019.52 1019.60 1019.59 1019.56 1019.53 1019.50
1019.18 1018.96 1018.93 1018.85 1018.71 1018.30 1018.20 1018.29 1018.08 1018.36 1018.70 1019.04 1019.09 1019.14 1018.87 1019.46 1019.49 1019.83 1020.12 1020.15 1019.90 1019.74 1018.84 1019.18 1019.27 1018.78 1018.50 1018.33 1018.47 1018.47 1018.55 1018.58 1018.60 1018.79 1019.53 1019.72 1019.68 1019.77 1019.86 1019.84 1019.80 1019.79 1019.75
1019.78 1019.78 1019.84 1019.42 1019.26 1019.03 1019.25 1019.23 1019.24 1019.06 1018.97 1019.45 1019.80 1019.76 1019.41 1019.85 1020.08 1020.38 1020.77 1021.11 1021.18 1021.08 1020.56 1020.10 1019.19 1018.67 1018.63 1018.33 1018.24 1018.30 1018.55 1018.71 1018.74 1018.86 1019.69 1020.06 1019.97 1019.94 1019.98 1020.05 1020.01 1019.94 1019.95
1020.19 1020.35 1020.27 1020.05 1019.86 1020.29 1019.89 1019.85 1019.88 1020.17 1020.07 1019.86 1019.98 1019.70 1020.07 1020.43 1020.50 1020.74 1020.83 1021.41 1021.86 1021.67 1021.58 1021.21 1020.50 1019.70 1019.32 1018.72 1018.46 1018.87 1018.60 1018.69 1018.88 1019.06 1019.28 1020.25 1020.31 1020.25 1020.20 1020.19 1020.12 1020.03 1020.02
1020.88 1020.66 1020.68 1020.53 1020.69 1020.67 1020.77 1020.62 1020.68 1020.67 1020.90 1020.82 1020.63 1019.97 1020.24 1021.32 1021.22 1021.01 1021.03 1021.46 1021.69 1021.76 1021.76 1021.71 1021.56 1020.87 1020.37 1020.25 1019.87 1019.78 1019.74 1019.72 1019.15 1019.30 1019.35 1019.98 1020.47 1020.56 1020.44 1020.25 1020.20 1020.16 1020.08
1021.31 1021.22 1020.96 1021.09 1021.04 1020.99 1020.99 1021.16 1021.09 1021.52 1021.07 1021.09 1021.42 1021.22 1020.63 1021.56 1021.67 1021.92 1021.98 1021.97 1022.31 1022.18 1021.81 1021.89 1021.91 1021.46 1021.36 1020.88 1020.80 1020.67 1020.58 1020.51 1020.48 1020.20 1019.98 1020.01 1020.30 1020.62 1020.69 1020.61 1020.47 1020.49 1020.38
1021.75 1021.58 1021.59 1021.33 1021.53 1021.73 1021.77 1021.80 1021.84 1021.74 1021.53 1022.25 1022.49 1022.11 1021.35 1020.52 1021.88 1021.93 1022.05 1022.30 1022.64 1022.37 1022.25 1022.11 1022.37 1021.65 1021.75 1021.54 1021.56 1021.35 1021.27 1021.11 1021.10 1020.97 1020.81 1020.87 1020.87 1020.49 1020.69 1020.88 1020.83 1020.75 1020.72
1022.05 1022.15 1021.95 1021.84 1022.01 1022.22 1022.17 1022.78 1022.06 1022.53 1022.69 1022.78 1022.81 1022.34 1022.34 1021.93 1022.07 1022.57 1022.64 1022.53 1022.39 1022.60 1023.04 1022.46 1022.52 1022.53 1022.31 1022.11 1021.82 1021.93 1021.93 1021.73 1021.87 1021.61 1021.36 1021.30 1021.24 1021.04 1021.04 1021.07 1021.19 1021.03 1020.96
1022.34 1022.36 1022.27 1022.34 1022.31 1022.34 1022.30 1022.46 1022.54 1022.43 1023.02 1023.18 1023.11 1022.97 1023.28 1022.76 1022.95 1022.86 1023.49 1023.53 1022.80 1022.92 1023.51 1023.27 1022.96 1023.10 1023.16 1023.22 1022.57 1022.16 1022.45 1022.14 1022.42 1022.25 1021.87 1021.76 1021.60 1021.36 1021.06 1021.13 1021.23 1021.70 1021.54
1022.58 1022.51 1022.52 1022.55 1022.40 1022.22 1022.13 1022.25 1022.56 1023.02 1023.48 1023.47 1023.55 1023.80 1023.72 1023.38 1023.69 1023.42 1023.84 1023.94 1023.56 1023.85 1023.57 1023.62 1023.46 1023.51 1023.77 1023.70 1023.48 1022.93 1022.99 1022.82 1022.94 1022.70 1022.40 1022.22 1022.00 1022.01 1021.66 1021.45 1021.45 1021.85 1022.12
1022.77 1022.80 1022.88 1022.92 1022.74 1022.46 1022.37 1022.60 1022.90 1023.25 1023.66 1023.70 1023.76 1023.88 1023.85 1024.00 1024.22 1023.87 1023.67 1024.14 1024.47 1024.42 1023.71 1023.57 1023.64 1023.75 1024.33 1024.27 1024.09 1024.10 1023.66 1023.60 1023.27 1023.28 1022.99 1022.87 1022.93 1022.82 1022.43 1022.22 1022.55 1022.53 1022.61
1023.10 1023.07 1023.05 1023.19 1023.14 1022.59 1022.89 1022.98 1023.44 1023.75 1023.93 1023.97 1023.81 1024.00 1024.41 1024.52 1024.81 1024.59 1024.01 1024.31 1024.84 1024.26 1024.87 1023.99 1023.55 1024.07 1024.33 1024.87 1024.97 1024.09 1024.28 1023.83 1023.85 1023.84 1023.67 1023.38 1023.34 1023.45 1023.44 1023.33 1023.22 1023.28 1023.08
1023.81 1023.65 1023.68 1023.69 1023.42 1022.93 1023.34 1022.96 1023.19 1023.33 1023.57 1024.13 1024.31 1024.46 1024.82 1024.84 1024.58 1024.70 1024.57 1024.68 1024.73 1025.09 1024.69 1024.62 1024.71 1024.39 1024.32 1024.59 1024.92 1024.76 1024.47 1024.49 1024.51 1024.50 1024.64 1023.96 1023.73 1023.65 1024.05 1023.78 1024.06 1023.91 1023.77
1024.46 1024.21 1024.07 1023.91 1023.89 1024.05 1023.62 1023.43 1023.54 1023.67 1024.03 1024.42 1024.54 1024.66 1024.93 1025.02 1025.04 1025.12 1024.97 1024.89 1024.89 1025.24 1025.17 1025.25 1024.97 1025.06 1024.80 1024.73 1024.92 1024.79 1024.83 1024.98 1024.69 1024.65 1024.47 1024.77 1024.22 1023.79 1024.36 1024.26 1024.47 1024.42 1024.45
1024.96 1024.92 1024.62 1024.67 1024.61 1024.49 1024.13 1024.03 1023.99 1023.90 1024.02 1024.44 1024.91 1024.87 1025.14 1025.18 1025.20 1025.39 1025.33 1025.33 1025.56 1025.32 1025.43 1025.38 1025.58 1025.21 1025.20 1025.59 1025.21 1025.20 1025.09 1025.10 1024.77 1024.88 1024.68 1024.75 1024.41 1024.42 1024.90 1024.09 1024.44 1025.18 1025.15
Thickness
5720 5723 5719 5722 5726 5726 5726 5728 5732 5734 5735 5735 5735 5734 5733 5733 5733 5732 5732 5732 5733 5734 5734 5735 5735 5735 5735 5735 5735 5735 5735 5734 5734 5734 5734 5734 5733 5732 5731 5732 5734 5733 5731
5712 5717 5716 5717 5721 5723 5725 5724 5727 5729 5730 5732 5732 5731 5731 5730 5730 5730 5730 5730 5731 5732 5731 5731 5731 5732 5734 5733 5732 5732 5732 5732 5732 5733 5735 5734 5732 5731 5730 5730 5731 5731 5730
5706 5707 5714 5714 5716 5720 5722 5721 5722 5725 5725 5727 5728 5728 5728 5729 5727 5729 5729 5729 5729 5729 5729 5727 5728 5729 5730 5730 5729 5729 5729 5730 5730 5733 5736 5736 5733 5731 5730 5729 5729 5729 5729
5698 5700 5707 5709 5712 5714 5717 5717 5718 5719 5720 5722 5724 5723 5724 5726 5726 5725 5727 5727 5727 5727 5725 5724 5725 5725 5725 5726 5727 5727 5727 5727 5729 5733 5736 5734 5732 5728 5728 5728 5727 5728 5728
5688 5694 5699 5703 5706 5710 5710 5711 5715 5716 5717 5716 5719 5718 5719 5719 5721 5722 5722 5723 5724 5723 5722 5721 5721 5721 5721 5722 5723 5724 5724 5725 5728 5733 5731 5730 5729 5726 5725 5725 5725 5725 5725
5680 5686 5692 5697 5699 5704 5704 5706 5709 5711 5711 5713 5712 5714 5713 5714 5714 5714 5716 5717 5719 5719 5718 5718 5718 5718 5718 5718 5719 5720 5722 5724 5728 5730 5730 5727 5726 5724 5723 5721 5721 5721 5722
5669 5674 5683 5691 5694 5698 5700 5699 5701 5704 5704 5708 5706 5708 5707 5708 5708 5708 5708 5710 5711 5713 5714 5715 5714 5715 5716 5716 5715 5716 5718 5722 5728 5728 5727 5726 5723 5722 5721 5719 5718 5717 5718
5658 5664 5668 5680 5685 5690 5693 5693 5694 5696 5697 5701 5700 5703 5703 5703 5701 5700 5702 5702 5704 5706 5708 5709 5710 5710 5711 5712 5713 5714 5715 5718 5722 5723 5724 5722 5718 5718 5718 5717 5716 5715 5714
5647 5653 5658 5666 5670 5675 5679 5681 5685 5685 5688 5691 5691 5693 5694 5694 5695 5695 5694 5697 5698 5700 5702 5703 5704 5705 5706 5706 5709 5710 5711 5714 5718 5719 5720 5718 5715 5715 5714 5714 5714 5713 5712
5634 5643 5646 5649 5660 5656 5664 5667 5670 5671 5673 5676 5678 5678 5683 5684 5685 5687 5688 5691 5692 5694 5696 5697 5699 5699 5701 5701 5703 5705 5707 5710 5714 5715 5716 5712 5712 5712 5711 5710 5710 5709 5709
5623 5630 5632 5637 5643 5643 5651 5654 5662 5660 5662 5663 5668 5670 5677 5676 5678 5680 5681 5682 5684 5687 5688 5691 5692 5694 5695 5696 5697 5699 5703 5709 5710 5711 5712 5707 5708 5708 5708 5708 5707 5706 5705
5610 5615 5619 5626 5628 5629 5636 5640 5649 5648 5651 5655 5657 5662 5664 5665 5668 5668 5670 5673 5676 5679 5680 5682 5686 5688 5692 5696 5695 5695 5701 5705 5706 5707 5706 5703 5703 5704 5704 5703 5703 5702 5701
5598 5604 5608 5611 5615 5623 5628 5632 5637 5639 5640 5643 5645 5647 5653 5652 5656 5658 5659 5662 5665 5668 5676 5675 5678 5685 5690 5694 5695 5697 5698 5699 5701 5701 5698 5698 5698 5698 5699 5699 5699 5698 5698
5586 5589 5593 5599 5604 5611 5610 5614 5619 5625 5630 5630 5633 5636 5641 5640 5643 5643 5645 5646 5650 5654 5658 5663 5671 5679 5683 5689 5692 5693 5694 5694 5695 5696 5692 5691 5692 5694 5695 5694 5695 5695 5694
5574 5575 5581 5587 5591 5590 5599 5600 5604 5606 5610 5619 5623 5627 5627 5628 5629 5630 5631 5632 5634 5642 5648 5652 5656 5665 5671 5678 5684 5684 5687 5689 5689 5689 5689 5685 5685 5687 5689 5690 5690 5691 5691
5559 5564 5568 5575 5578 5581 5584 5587 5589 5594 5595 5601 5606 5617 5616 5609 5613 5617 5622 5623 5627 5632 5637 5643 5646 5652 5658 5662 5667 5672 5674 5676 5682 5682 5683 5680 5680 5680 5682 5684 5685 5685 5686
5546 5551 5557 5560 5566 5571 5575 5578 5582 5577 5586 5589 5591 5596 5604 5599 5603 5602 5608 5612 5612 5617 5623 5629 5633 5640 5643 5650 5654 5658 5662 5665 5666 5670 5673 5673 5674 5674 5674 5676 5678 5677 5679
5532 5538 5543 5548 5551 5555 5560 5564 5566 5570 5576 5571 5570 5579 5591 5601 5592 5593 5597 5600 5600 5605 5611 5617 5619 5632 5632 5636 5640 5644 5648 5653 5655 5658 5662 5662 5663 5666 5667 5668 5669 5670 5671
5518 5523 5530 5535 5538 5541 5547 5545 5556 5553 5555 5559 5560 5567 5572 5581 5580 5578 5584 5589 5594 5597 5597 5605 5610 5614 5621 5625 5630 5631 5634 5640 5640 5646 5650 5652 5654 5657 5658 5659 5660 5663 5664
5503 5508 5515 5520 5525 5528 5534 5535 5539 5543 5543 5546 5547 5553 5553 5563 5564 5565 5567 5573 5582 5585 5586 5590 5598 5601 5604 5606 5615 5621 5622 5628 5629 5633 5638 5641 5644 5647 5650 5652 5652 5650 5653
5487 5494 5499 5506 5512 5518 5523 5525 5527 5526 5528 5531 5534 5535 5540 5547 5548 5551 5554 5557 5566 5566 5574 5579 5585 5588 5589 5593 5599 5607 5608 5613 5615 5621 5627 5630 5633 5635 5639 5642 5644 5641 5641
5472 5478 5482 5489 5496 5503 5507 5510 5512 5512 5513 5518 5521 5525 5529 5532 5533 5537 5545 5546 5548 5552 5565 5570 5573 5576 5575 5579 5585 5588 5596 5599 5604 5607 5613 5615 5619 5620 5625 5629 5629 5630 5630
5457 5463 5469 5473 5480 5489 5491 5493 5495 5497 5500 5505 5510 5512 5514 5517 5517 5524 5533 5534 5534 5544 5545 5557 5567 5564 5566 5564 5568 5581 5582 5592 5593 5593 5598 5602 5606 5606 5608 5611 5615 5616 5620
5437 5445 5451 5456 5465 5473 5474 5483 5486 5491 5493 5491 5494 5496 5497 5503 5510 5512 5517 5521 5522 5522 5533 5541 5547 5553 5557 5558 5557 5563 5569 5571 5579 5584 5580 5586 5593 5595 5593 5597 5598 5601 5606
5416 5427 5434 5442 5448 5451 5460 5467 5471 5475 5477 5477 5481 5485 5487 5489 5494 5498 5504 5508 5513 5512 5513 5523 5533 5536 5542 5547 5548 5553 5556 5558 5564 5570 5579 5575 5579 5584 5581 5582 5584 5586 5589
5400 5407 5417 5422 5428 5435 5444 5450 5456 5461 5464 5466 5466 5471 5474 5478 5481 5485 5491 5494 5497 5502 5502 5505 5513 5522 5526 5526 5535 5538 5544 5548 5554 5556 5562 5562 5570 5570 5568 5575 5573 5569 5572